Weather observations for the past three days for
Walla Walla Regional Airport
Imperial (Metric)
Date Time (pdt) Wind (mph) Vis. (mi.) Weather Sky Cond. Temperature (ºF) Relative Humidity Wind Chill (°F) Heat Index (°F) Pressure Precipitation (in)
Air Dwpt 6 hour altimeter (in) sea level (mb) 1 hr 3 hr 6 hr
Max. Min.
04 19:53 SE 6 10.00 Fair CLR 75.9 48 37% 78 29.69 1004.7
04 18:53 S 8 10.00 Fair CLR 80.1 45 29% 79 29.69 1004.8
04 17:53 SE 6 10.00 Fair CLR 81 44.1 27% 80 29.7 1005.3
04 16:53 Vrbl 6 10.00 Fair CLR 82 42.1 82 72 24% 80 29.71 1005.5
04 15:53 N 5 10.00 Fair CLR 81 42.1 25% 79 29.73 1005.9
04 14:53 Vrbl 3 10.00 Fair CLR 80.1 39.9 24% 79 29.74 1006.5
04 13:53 W 7 10.00 Fair CLR 79 44.1 29% 79 29.76 1007.2
04 12:53 Vrbl 7 10.00 Fair CLR 77 44.1 31% 78 29.78 1007.6
04 11:53 W 9 10.00 Fair CLR 75.9 42.1 30% 77 29.78 1007.8
04 10:53 SW 6 10.00 Fair CLR 73 42.1 73 55 33% 29.79 1008.1
04 09:53 W 7 10.00 Fair CLR 70 42.1 37% 29.79 1008.1
04 08:53 SW 5 10.00 Fair CLR 68 41 38% 29.79 1008.2
04 07:53 NW 3 10.00 Fair CLR 66 44.1 45% 29.78 1007.9
04 06:53 NE 3 10.00 Fair CLR 60.1 45 58% 29.77 1007.5
04 05:53 E 6 10.00 Fair CLR 57 41 55% 29.75 1006.8
04 04:53 SE 8 10.00 Fair CLR 57.9 41 64 57.9 53% 29.76 1007.1
04 03:53 Calm 10.00 Fair CLR 60.1 39.9 48% 29.77 1007.2
04 02:53 E 6 10.00 Fair CLR 59 41 51% 29.77 1007.5
04 01:53 E 8 10.00 Fair CLR 62.1 41 46% 29.76 1007.2
03 23:53 E 7 10.00 Fair CLR 63 42.1 47% 29.77 1007.5
03 22:53 E 8 10.00 Fair CLR 64 43 82.9 63 46% 29.77 1007.6
03 21:53 E 9 10.00 Fair CLR 64.9 44.1 47% 29.78 1007.8
03 20:53 E 9 10.00 Fair CLR 64.9 48.9 56% 29.77 1007.7
03 19:53 NE 3 10.00 Fair CLR 75.9 44.1 32% 77 29.76 1007.2
03 18:53 N 6 10.00 Fair CLR 81 42.1 25% 79 29.77 1007.5
03 17:53 N 7 10.00 Fair CLR 82.9 39 21% 81 29.79 1008.3
03 16:53 N 3 10.00 Fair CLR 82.9 35.1 84 70 18% 80 29.81 1008.9
03 15:53 N 6 10.00 Fair CLR 82.9 37 19% 80 29.83 1009.5
03 14:53 Vrbl 3 10.00 Fair CLR 82 46 28% 80 29.85 1010.3
03 13:53 W 6 10.00 Fair CLR 80.1 48 33% 79 29.87 1011.0
03 12:53 Calm 10.00 Fair CLR 77 46.9 35% 78 29.89 1011.7
03 11:53 Vrbl 6 10.00 Fair CLR 72 46.9 41% 29.92 1012.6
03 10:53 W 6 10.00 Fair CLR 70 46 71.1 51.1 42% 29.93 1013.0
03 09:53 Vrbl 5 10.00 Fair CLR 66.9 46 47% 29.94 1013.4
03 08:53 Vrbl 3 10.00 Fair CLR 66 45 47% 29.93 1013.2
03 07:53 S 3 10.00 Fair CLR 63 44.1 50% 29.93 1013.1
03 06:53 Calm 10.00 Fair CLR 57.9 44.1 60% 29.93 1013.1
03 05:53 E 5 10.00 Fair CLR 52 42.1 69% 29.92 1012.8
03 04:53 E 3 10.00 Fair CLR 54 42.1 64 50 64% 29.92 1012.7
03 03:53 SE 5 10.00 Fair CLR 53.1 42.1 66% 29.92 1012.9
03 02:53 SE 3 10.00 Fair CLR 52 42.1 69% 29.92 1012.7
03 01:53 E 9 10.00 Fair CLR 55.9 39.9 55% 29.91 1012.4
03 00:53 E 7 10.00 Fair CLR 57.9 42.1 56% 29.9 1012.2
02 23:53 SE 5 10.00 Fair CLR 61 43 52% 29.9 1012.0
02 22:53 E 6 10.00 Fair CLR 63 43 84.9 62.1 48% 29.89 1011.7
02 21:53 E 10 10.00 Fair CLR 63 45 52% 29.88 1011.5
02 20:53 E 13 10.00 Fair CLR 66.9 44.1 44% 29.86 1010.7
02 19:53 NE 10 10.00 Fair CLR 69.1 46 44% 29.84 1010.1
02 18:53 NE 12 10.00 Fair CLR 78.1 46 32% 78 29.84 1010.0
02 17:53 NE 12 10.00 Fair CLR 80.1 43 27% 79 29.85 1010.2
02 16:53 NE 12 10.00 Fair CLR 84 37 84 69.1 19% 81 29.85 1010.4
02 15:53 S 6 10.00 Fair CLR 80.1 54 41% 80 29.87 1011.0
02 14:53 Vrbl 3 10.00 Fair CLR 79 53.1 41% 79 29.89 1011.7
02 13:53 W 7 10.00 Fair CLR 77 50 39% 78 29.91 1012.5
02 12:53 W 6 10.00 Fair CLR 73.9 48.9 41% 29.93 1013.0
02 11:53 W 5 10.00 Fair CLR 71.1 48 44% 29.94 1013.3
02 10:53 Vrbl 3 10.00 Fair CLR 69.1 48 69.1 53.1 47% 29.94 1013.4
02 09:53 S 7 10.00 Fair CLR 64 48.9 58% 29.94 1013.6
02 08:53 S 5 10.00 Fair CLR 61 46.9 60% 29.94 1013.6
02 07:53 S 5 10.00 Fair CLR 59 46.9 64% 29.94 1013.4
02 06:53 S 3 10.00 Fair CLR 57.9 45 62% 29.93 1013.2
02 05:53 SE 5 10.00 Fair CLR 55.9 43 62% 29.92 1012.6
02 04:53 S 6 10.00 Fair CLR 54 44.1 66.9 54 69% 29.92 1012.6
02 03:53 S 7 10.00 Fair CLR 59 41 51% 29.92 1012.5
02 02:53 SW 3 10.00 Fair CLR 60.1 39.9 48% 29.91 1012.1
02 01:53 E 10 10.00 Fair CLR 61 39.9 46% 29.91 1012.3
02 00:53 SE 8 10.00 Fair CLR 66 37 34% 29.92 1012.4
01 23:53 E 7 10.00 Fair CLR 64 39.9 41% 29.92 1012.5
01 22:53 E 9 10.00 Fair CLR 64 41 81 62.1 43% 29.91 1012.5
01 21:53 E 10 10.00 Fair CLR 63 46.9 56% 29.92 1012.7
01 20:53 E 13 10.00 Fair CLR 66 46 49% 29.91 1012.5
Date Time (pdt) Wind (mph) Vis. (mi.) Weather Sky Cond. Air Dwpt Max. Min. Relative Humidity Wind Chill (°F) Heat Index (°F) altimeter (in) sea level (mb) 1 hr 3 hr 6 hr
6 hour
Temperature (ºF) Pressure Precipitation (in)